Location: Huntsville
(41.2590°N, 111.7678°W)
Time: 17:44:29
(UTC+00:00)

Explorer 11/Cluster Stage 4 - All Passes

Search period start: 18 June 2021 00:00
Search period end: 28 June 2021 00:00
Orbit: 467 x 1257 km, 28.8° (Epoch: 17 June)

Date Brightness Start Highest point End Pass type
(mag) Time Alt. Az. Time Alt. Az. Time Alt. Az.
18 Jun - 10:05:59 10° S 10:09:23 13° SSE 10:12:42 10° SE visible
18 Jun - 11:51:25 10° SW 11:57:35 25° SSE 12:03:12 10° ESE daylight
18 Jun - 13:39:36 10° WSW 13:45:54 29° S 13:51:20 10° SE daylight
18 Jun - 15:29:05 10° WSW 15:33:52 20° SSW 15:38:03 10° SSE daylight
19 Jun - 09:53:45 10° S 09:58:02 15° SSE 10:02:12 10° ESE visible
19 Jun - 11:39:47 10° SW 11:46:16 27° S 11:52:13 10° ESE daylight
19 Jun - 13:28:08 10° WSW 13:34:37 30° S 13:40:17 10° SE daylight
19 Jun - 15:17:45 10° WSW 15:22:37 20° SSW 15:26:53 10° SSE daylight
20 Jun - 09:41:45 10° SSW 09:46:39 17° SSE 09:51:28 10° ESE visible
20 Jun - 11:28:12 10° SW 11:34:56 29° S 11:41:11 10° ESE daylight
20 Jun - 13:16:41 10° WSW 13:23:20 30° S 13:29:12 10° SE daylight
20 Jun - 15:06:27 10° WSW 15:11:20 19° SSW 15:15:40 10° SSE daylight
21 Jun - 09:29:56 10° SSW 09:35:15 19° SSE 09:40:34 10° ESE visible
21 Jun - 11:16:41 10° SW 11:23:35 30° S 11:30:05 10° ESE visible
21 Jun - 13:05:15 10° WSW 13:12:01 30° S 13:18:04 10° SE daylight
21 Jun - 14:55:11 10° WSW 15:00:02 19° SSW 15:04:24 10° SSE daylight
22 Jun - 09:18:13 10° SSW 09:23:52 21° SSE 09:29:33 10° ESE visible
22 Jun - 11:05:12 10° SW 11:12:13 31° S 11:18:55 10° ESE visible
22 Jun - 12:53:51 10° WSW 13:00:41 30° S 13:06:53 10° SE daylight
22 Jun - 14:43:57 10° WSW 14:48:43 18° SSW 14:53:02 10° SSE daylight
23 Jun - 09:06:37 10° SSW 09:12:28 23° SSE 09:18:27 10° ESE visible
23 Jun - 10:53:47 10° SW 11:00:51 32° S 11:07:44 10° ESE visible
23 Jun - 12:42:30 10° WSW 12:49:20 30° S 12:55:39 10° SE daylight
23 Jun - 14:32:47 10° WSW 14:37:22 17° SSW 14:41:35 10° S daylight
24 Jun - 08:55:07 10° SSW 09:01:04 24° SSE 09:07:18 10° ESE visible
24 Jun - 10:42:25 10° WSW 10:49:29 33° S 10:56:29 10° ESE visible
24 Jun - 12:31:10 10° WSW 12:37:58 29° SSW 12:44:21 10° SE daylight
24 Jun - 14:21:42 10° WSW 14:26:00 16° SSW 14:30:01 10° S daylight
25 Jun - 06:59:58 10° SSE 07:01:50 11° SSE 07:03:44 10° SE visible
25 Jun - 08:43:40 10° SW 08:49:41 25° SSE 08:56:04 10° ESE visible
25 Jun - 10:31:05 10° WSW 10:38:06 33° S 10:45:12 10° ESE visible
25 Jun - 12:19:53 10° WSW 12:26:35 28° SSW 12:33:00 10° SE daylight
25 Jun - 14:10:43 10° WSW 14:14:37 14° SSW 14:18:20 10° S daylight
26 Jun - 06:47:49 10° S 06:50:27 12° SSE 06:53:12 10° SE visible
26 Jun - 08:32:18 10° SW 08:38:18 26° SSE 08:44:47 10° ESE visible
26 Jun - 10:19:48 10° WSW 10:26:43 33° S 10:33:51 10° ESE visible
26 Jun - 12:08:38 10° WSW 12:15:12 27° SSW 12:21:35 10° SE daylight
26 Jun - 13:59:53 10° SW 14:03:13 13° SSW 14:06:25 10° S daylight
27 Jun - 06:36:01 10° S 06:39:05 13° SSE 06:42:21 10° SE visible
27 Jun - 08:21:00 10° SW 08:26:56 27° SSE 08:33:28 10° ESE visible
27 Jun - 10:08:33 10° WSW 10:15:21 33° S 10:22:28 10° ESE visible
27 Jun - 11:57:26 10° WSW 12:03:48 25° SSW 12:10:06 10° SE daylight
27 Jun - 13:49:22 10° SW 13:51:49 12° SSW 13:54:12 10° SSW daylight
